Hourly Weather Roundup
Issued by NWS Central Illinois

Home | Current Version | Previous Version | Text Only | Print | Product List | Glossary On
Versions: 1 2 3 4 5 6 7 8 9 10 11 12 13 14 15 16 17 18 19 20 21 22 23 24 25 26 27 28 29 30 31 32 33 34 35 36 37 38 39 40 41 42 43 44 45 46 47 48 49 50
000
NZUS43 KILX 271610
HWRILX

AREA WEATHER ROUNDUP
NATIONAL WEATHER SERVICE, LINCOLN IL
1100 AM CDT WED AUG 27 2014


CITY           SKY/WX    TMP DP  RH WIND       PRES   REMARKS
BLOOMINGTON    SUNNY     80  70  71 CALM      30.15S HX  83
CHAMPAIGN      MOSUNNY   80  73  79 E5        30.13S HX  84
DECATUR        MOSUNNY   82  72  71 CALM      30.13S HX  87
FLORA          SUNNY     84  73  70 CALM      30.12S HX  90
GALESBURG      CLOUDY    80  69  68 E5        30.15R HX  83
JACKSONVILLE   MOSUNNY   84  74  71 SE5       30.13S HX  90
LACON          MOSUNNY   78  67  69 E5        30.13S HX  80
LAWRENCEVILLE  SUNNY     86  75  69 CALM      30.12R HX  95
LITCHFIELD     SUNNY     82  72  72 SE5       30.13S HX  86
$$


CITY           SKY/WX    TMP DP  RH WIND       PRES   REMARKS
LINCOLN        MOSUNNY   80  73  80 E6        30.10S HAZE    HX  83
MACOMB         CLOUDY    77  70  79 E5        30.16R
MATTOON        SUNNY     84  71  65 CALM      30.12R HX  89
MT CARMEL AP   SUNNY     88  75  66 CALM      30.12R HX  97
OLNEY-NOBLE AP SUNNY     84  75  74 CALM      30.12S HX  92
PARIS          SUNNY     82  71  70 CALM      30.13S HX  86
PEORIA         MOSUNNY   81  68  64 E8        30.13F HX  84
PONTIAC        MOSUNNY   81  68  65 E3        30.14S HX  83
RANTOUL        MOSUNNY   80  72  76 N5        30.14S HX  84
ROBINSON       SUNNY     86  72  62 CALM      30.12S HX  93
SPRINGFIELD    SUNNY     84  72  67 NE7       30.12S HX  89
TAYLORVILLE    SUNNY     81  72  74 S3        30.12S HX  84
$$

...REGIONAL REPORTS...


CITY           SKY/WX    TMP DP  RH WIND       PRES   REMARKS
CHICAGO O`HARE PTSUNNY   76  61  59 SE7       30.14S
KANKAKEE       SUNNY     77  65  66 NE6       30.14S
MOLINE         CLOUDY    75  62  64 E5        30.15S
MOUNT VERNON   SUNNY     86  73  66 CALM      30.12S HX  93
PITTSFIELD     MOSUNNY   83  73  71 E5        30.13S HX  88
QUINCY         CLOUDY    80  72  76 NE6       30.13R HX  84
ROCKFORD       PTSUNNY   77  59  53 E5        30.17F
$$


CITY           SKY/WX    TMP DP  RH WIND       PRES   REMARKS
BURLINGTON     CLOUDY    76  68  76 E6        30.14R
CEDAR RAPIDS   CLOUDY    71  62  73 E7        30.17S
DES MOINES     CLOUDY    73  64  73 E8        30.17R
KIRKSVILLE     CLOUDY    76  68  76 NE7       30.17S
OTTUMWA        LGT RAIN  67  65  93 CALM      30.17F
ST LOUIS       PTSUNNY   87  74  64 E3        30.11F HX  95
$$


CITY           SKY/WX    TMP DP  RH WIND       PRES   REMARKS
TERRE HAUTE    SUNNY     82  71  69 CALM      30.12S HX  86
EVANSVILLE     SUNNY     89  72  56 W3        30.11S HX  96
INDIANAPOLIS   MOSUNNY   82  67  60 CALM      30.11S HX  84
LAFAYETTE      MOSUNNY   77  71  82 CALM      30.12S
MADISON        PTSUNNY   73  58  59 VRB3      30.19R
MILWAUKEE      MOSUNNY   71  63  75 NE12      30.17R
$$





USA.gov is the U.S. government's official web portal to all federal, state and local government web resources and services.